Weather Service Report


029 
ASUS41 KAKQ 221310
RWRAKQ

REGIONAL WEATHER ROUNDUP
NATIONAL WEATHER SERVICE WAKEFIELD VA
800 AM EST MON DEC 22 2014

Note: "fair" indicates few or no clouds below 12,000 feet with no
significant weather and/or obstructions to visibility. * = Denotes
station may not report precipitation (e.g., rain,snow,etc.),
thunder or fog.

VAZ042-051-052>054-056-221400-
NORTHERN VIRGINIA
  
CITY           SKY/WX    TMP DP  RH WIND       PRES   REMARKS
WASH NATIONAL  CLOUDY    35  25  66 NE6       30.31S                  
DULLES         CLOUDY    30  24  78 N3        30.29R                  
FORT BELVOIR   CLOUDY    33  26  76 N2        30.29S HAZE             
QUANTICO       LGT RAIN  35  27  72 NE7       30.31R                  
FREDERICKSBRG* DRIZZLE   35  30  84 N3        30.27S                  
STAFFORD*      DRIZZLE   33  32  96 CALM      30.32S                  
WARRENTON      LGT RAIN  32  31  96 NE3       30.28R                  
CULPEPER*      LGT SNOW  32  28  86 CALM      30.27F                  
MANASSAS*      NOT AVBL                                               
LEESBURG*      CLOUDY    30  28  93 CALM      30.29F                  
WINCHESTER     CLOUDY    32  23  69 N3        30.25S HAZE             
FRONT ROYAL*   CLOUDY    30  27  86 NW5       30.24S                  
LURAY*         CLOUDY    32  30  93 CALM      30.23R                  
$$

VAZ048-049-060>072-079>083-221400-
CENTRAL AND SOUTH CENTRAL VIRGINIA
  
CITY           SKY/WX    TMP DP  RH WIND       PRES   REMARKS
RICHMOND       LGT RAIN  36  31  82 NE7       30.24F FOG              
CHESTERFIELD*  CLOUDY    36  21  55 CALM      30.25S                  
PETERSBURG*    LGT RAIN  37  35  93 NE9       30.23R                  
HANOVER        LGT RAIN  34  30  85 CALM      30.27S FOG              
TAPPAHANNOCK*  MIX PCPN  37  29  72 CALM      30.26F                  
QUINTON*       CLOUDY    34  32  92 E3        30.24F                  
CHARLOTTSVILLE MIX PCPN  32  28  85 NE6       30.24S FOG              
GORDONSVILLE*  CLOUDY    31  28  86 NE5       30.24F                  
ORANGE*        MIX PCPN  32  30  93 N6        30.27S                  
LOUISA*        CLOUDY    34  28  80 NE7       30.22F FOG              
BUMPASS*       CLOUDY    32  28  85 CALM      30.23F                  
FARMVILLE*     DRIZZLE   36  31  83 N7        30.22R                  
CREWE*         CLOUDY    34  32  92 CALM      30.21R                  
FORT PICKETT*  CLOUDY    34  32  94 NE12      30.20F                  
CHASE CITY*    CLOUDY    36  36 100 N3        30.21R                  
CLARKSVILLE*   CLOUDY    34  34 100 NE5       30.20R                  
SOUTH HILL*    CLOUDY    33  32  94 N7        30.23F                  
LAWRENCEVILLE* CLOUDY    34  33  96 NE6       30.18F                  
EMPORIA*       LGT SNOW  34  34 100 N8        30.22S                  
$$

VAZ088>098-221400-
SOUTHEAST VIRGINIA
  
CITY           SKY/WX    TMP DP  RH WIND       PRES   REMARKS
NORFOLK        HVY RAIN  42  39  89 N13G20    30.20R                  
VIRGINIA BEACH LGT RAIN  46  43  89 NE15      30.18S FOG              
NORFOLK NAVAL  RAIN      44  38  79 NE18      30.22R FOG              
WEST POINT*    CLOUDY    38  33  82 NE3       30.27R                  
SALUDA*        CLOUDY    37  34  87 NE5       30.25R                  
NEWPORT NEWS   RAIN      41  36  82 NE10      30.22R                  
LANGLEY AFB    RAIN      39  37  92 NE12      30.22S FOG              
FORT EUSTIS    LGT RAIN  38  38  98 NE6       30.20F FOG              
WILLIAMSBURG*  CLOUDY    39  37  93 NE3       30.23F VSB 1/2          
HR EXEC AP*    CLOUDY    39  36  87 NE8       30.21F                  
FRANKLIN*      CLOUDY    37  37 100 NE10      30.18F                  
WAKEFIELD      LGT RAIN  37  34  89 N8        30.22R FOG              
$$

VAZ020-022-025-037-045-221400-
WEST CENTRAL AND SOUTHWEST VIRGINIA
  
CITY           SKY/WX    TMP DP  RH WIND       PRES   REMARKS
STAUNTON*      DRIZZLE   33  28  80 CALM      30.22R                  
WAYNESBORO*    CLOUDY    30  28  93 CALM      30.19R                  
HOT SPRINGS VA CLOUDY    29  29 100 SE5       30.05S                  
LYNCHBURG      CLOUDY    33  30  88 NE10      30.22R WCI  25          
DANVILLE       CLOUDY    35  32  88 NE8       30.22R FOG              
SOUTH BOSTON*  CLOUDY    34  33  95 NE5       30.20F                  
MARTINSVILLE   DRIZZLE   36  36 100 NE5       30.22R                  
ROANOKE        CLOUDY    36  29  75 S5        30.21R                  
BLACKSBURG     CLOUDY    33  27  79 E7        30.16F                  
DUBLIN*        CLOUDY    35  32  87 E5        30.15R                  
MARION*        CLOUDY    36  33  90 E9        30.12S FOG              
HILLSVILLE*    CLOUDY    33  31  93 NE5       30.09F                  
RICHLANDS*     CLOUDY    41  35  79 SE7       30.03F                  
WISE*          CLOUDY    43  36  75 SE6       30.03S                  
ABINGDON*      CLOUDY    42  37  83 E9        30.05S                  
$$

MDZ021>025-VAZ099-100-221400-
SOUTHERN MARYLAND AND THE DELMARVA PENINSULA
  
CITY           SKY/WX    TMP DP  RH WIND       PRES   REMARKS
PATUXENT RIVER CLOUDY    35  27  72 E8        30.28S                  
BAY BRIDGE APT   N/A     32  28  86 NE3       30.30S                  
LEONARDTOWN    CLOUDY    34  28  80 CALM      30.29R                  
DOVER          MOCLDY    27  26  99 N3        30.28S                  
GEORGETOWN     CLOUDY    34  27  75 N5        30.29S                  
EASTON         CLOUDY    32  30  93 NE7       30.33S                  
CAMBRIDGE      CLOUDY    36  30  80 E5        30.28S                  
SALISBURY      CLOUDY    38  30  73 NE6       30.27S                  
OCEAN CITY     CLOUDY    41  35  79 E7        30.28R                  
WALLOPS ISLAND CLOUDY    38  34  85 NE10      30.26R                  
ACCOMACK*      CLOUDY    37  32  81 N3        30.25R                  
$$

NCZ012>017-030>032-221400-
NORTH CENTRAL AND EASTERN NORTH CAROLINA
  
CITY           SKY/WX    TMP DP  RH WIND       PRES   REMARKS
ROANOKE RAPIDS HVY RAIN  36  34  93 NE10G18   30.16F                  
RALEIGH        LGT RAIN  36  33  89 NE8       30.16F FOG              
ELIZABETH CITY RAIN      48  45  87 NE17G25   30.14S                  
AHOSKIE*       MIX PCPN  38  37  95 N8        30.17R                  
EDENTON*       RAIN      43  42  97 NE7       30.13S                  
CURRITUCK*     RAIN      46  44  92 NE13G21   30.16R                  
KILL DEVIL HLS RAIN      49  49  99 NE13G22   30.09F                  
MANTEO         LGT RAIN  49  49  98 NE17      30.11F                  
CAPE HATTERAS  CLOUDY    56  56 100 E9        30.06F FOG              
TARBORO*       RAIN      39  37  93 NW6       30.18R                  
GOLDSBORO      LGT RAIN  39  39 100 N9G18     30.12S                  
WASHINGTON     CLOUDY    43  41  95 N6        30.11R                  
GREENVILLE     LGT RAIN  41  39  93 N7        30.15R                  
NEW BERN       CLOUDY    49  45  86 NE9       30.08F FOG              
WILMINGTON     CLOUDY    45  44  97 N7        30.08R FOG              
$$

VAZ048-221400-
ELSEWHERE
  
CITY           SKY/WX    TMP DP  RH WIND       PRES   REMARKS
HARRISBURG PA  PTCLDY    21  18  88 CALM      30.30F                  
BALTIMORE      CLOUDY    31  25  78 N3        30.30R                  
ANNAPOLIS      CLOUDY    34  27  75 NE5       30.30S                  
ANDREWS AFB    CLOUDY    31  26  83 NE6       30.28S                  
PHILADELPHIA   PTCLDY    32  25  75 N5        30.32S                  
HENDERSON NC   LGT SNOW  35  33  93 NE9       30.17S                  
GREENSBORO     LGT RAIN  34  32  92 NE10      30.16S FOG              
ROCKY MOUNT    LGT RAIN  38  36  92 N10       30.17R                  
$$

VAZ100-221400-
MARINE
  
STATION/POSITION TIME  TEMP    WIND        PRES    WAVE   SWELL
                       AIR SEA DIR/SP/G            HT/PER HT/PER
                 (UTC) (F)     (DEG/KT/KT) (MB)    (FT/S) (FT/S)
CAPE MAY NJ      1300   32 42   90/  3/  3 1025.5R
LEWES DE         1300   38 41   70/  8/  9 1025.5F
15NM E FENWICK I 1300   43 45              1024.5F   2/ 9
OCEAN-CITY-INLET 1300   42 43   70/  7/ 10 1024.7R
WACHAPREAGUE VA  1300   39 40   30/  9/ 14 1023.7S
THOMAS POINT MD  1300   33 40   60/  9/ 10 1026.8F
GOOSES REEF MD   1300   35     VRB 10/ 12  1024.7R   1/ 2
COVE POINT MD    1300   34      70/ 10/ 12 1025.1R
SOLOMONS ISLAND  1300      42                N/A
BISHOPS HEAD MD  1300   35 36   30/ 11/ 13 1024.6R
CAMBRIDGE MD     1300   34 40   50/  9/ 10 1024.9F
LEWISETTA VA     1300   38 41   70/ 12/ 14 1024.6F
RAPPAHANNOCK LGT 1300           20/ 15/ 17 1024.4S
STINGRAY PT      1300   39 43   40/ 16/ 19 1024.3F   2/ 3
YORK RVR RNG VA  1300   40      40/ 19/ 21 1022.9R
YORKTOWN VA      1300   40 45   40/ 11/ 14 1023.4F
JAMESTOWN VA     1300   36 44   50/  6/  8   N/A     0
DOMINION TERM VA 1300   40      30/  9/ 14 1023.2S
KIPTOPEKE VA     1300      48   60/  9/ 15   N/A
CHES BAY BRIDGE  1300   42 45   10/ 14/ 16 1022.2R
CAPE HENRY VA    1300   45      40/ 19/ 23 1021.1R
CHESAPEAKE LGHT  1200   46      50/ 24/ 25 1022.3F
WILLOUBY STN VA  1300   40      20/ 15/ 17 1023.6R
S CRANEY ISL VA  1300           40/ 13/ 16 1022.7F
CAPE HENRY BUOY  1200      49                N/A     5/ 5
1ST LANDING BUOY 1300   45 46   30/ 14/ 19 1022.3R   3/ 3
CAPE CHARLES BUO 1300      47                N/A     4/ 5   2/10
64NM E OF VA BCH 1300   54 54   50/ 21/ 23 1020.3F   5/ 5   2/10
DUCK PIER NC     1300   48 46   50/ 26/ 30 1018.8F
44100 DUCK FRF   1200      52                N/A     7/ 6
44056 DUCK FRF   1300      46                N/A     6/ 6
OREGON INLET NC  1300   53 48   50/  8/ 12 1019.0R
HATTERAS NC      1300   58 49  100/  7/ 10 1018.2F
DIAMOND SHLS NC  1300   67                 1017.0F   9/ 8
CAPE LOOKOUT NC  1200   51     360/ 12/ 16 1016.9S
$$

Return to Home page


Western Regional Climate Center, wrcc@dri.edu